Location: Igri�s
(42.2144°N, 0.4320°W)
Time: 09:59:56
(UTC+00:00)

Cosmos 1733 Rocket - Pass Details

Date: 13 August 2020
Orbit: 603 x 628 km, 82.5° (Epoch: 18 September)

Event Time Altitude Azimuth Distance (km) Brightness Sun altitude
Exits shadow 22:34:36 35° 8° (N) 999 4.4 -29.7°
Drops below altitude 10° 22:37:13 10° 8° (N) 2,000 6.3 -29.9°
Sets 22:39:28 0° 9° (N) 2,915 7.3 -30.0°
